Weather History for Chicopee, MA

Change the Weather History Date:

Sunday, September 29, 2013

  Actual Average Record
Temperature  
Mean Temperature 56 °F -  
Max Temperature 71 °F 65 °F 82 °F (2010)
Min Temperature 41 °F 43 °F 28 °F (2000)
Degree Days  
Heating Degree Days 9    
Growing Degree Days 6 (Base 50)    
Moisture  
Dew Point 46 °F    
Average Humidity 97    
Maximum Humidity 100    
Minimum Humidity 43    
Precipitation  
Precipitation 0.00 in - - ()
Sea Level Pressure  
Sea Level Pressure 30.22 in    
Wind  
Wind Speed 2 mph (NNE)    
Max Wind Speed 7 mph    
Max Gust Speed -    
Visibility 2 miles    
Events Fog    
Averages and records for this station are not official NWS values.
T = Trace of Precipitation, MM = Missing Value Source: NWS Daily Summary

Daily Weather History Graph

Daily Weather History Graph

Search for Another Location

Airport:

Trip Planner

Search our weather history database for the weather conditions in past years. The results will help you decide how hot, cold, wet, or windy it might be!

Date:

Astronomy

Sep. 29, 2013 Rise Set
Actual Time 6:45 AM EDT 6:34 PM EDT
Civil Twilight 6:17 AM EDT 7:02 PM EDT
Nautical Twilight 5:44 AM EDT 7:35 PM EDT
Astronomical Twilight 5:11 AM EDT 8:07 PM EDT
Moon 1:18 AM EDT (9/29) 3:33 PM EDT (9/29)
Length of Visible Light 12h 45m
Length of Day
11h 49m
Waning Crescent, 27% of the Moon is Illuminated
Sep 29
Waning Crescent
Oct 4
New
Oct 11
First Quarter
Oct 18
Full
Oct 26
Last Quarter

Hourly Weather History & Observations

Time (EDT) Temp. Windchill Dew Point Humidity Pressure Visibility Wind Dir Wind Speed Gust Speed Precip Events Conditions
12:19 AM 48.2 °F - 48.2 °F 100% 30.25 in 2.5 mi NE 1.2 mph - N/A   Clear
12:20 AM 48.2 °F - 48.2 °F 100% 30.25 in 1.8 mi ENE 1.2 mph - N/A   Clear
12:21 AM 48.2 °F - 48.2 °F 100% 30.25 in 1.2 mi NNE 1.2 mph - N/A   Clear
12:24 AM 48.2 °F - 48.2 °F 100% 30.25 in 1.2 mi Calm Calm - N/A   Clear
12:25 AM 48.2 °F - 48.2 °F 100% 30.25 in 1.0 mi Calm Calm - N/A   Clear
12:28 AM 48.2 °F - 46.4 °F 93% 30.25 in 1.2 mi NE 1.2 mph - N/A   Clear
12:29 AM 48.2 °F - 46.4 °F 93% 30.25 in 1.2 mi Calm Calm - N/A   Clear
12:30 AM 48.2 °F - 46.4 °F 93% 30.25 in 1.8 mi Calm Calm - N/A   Clear
12:31 AM 48.2 °F - 48.2 °F 100% 30.25 in 2.5 mi NNE 1.2 mph - N/A   Clear
12:32 AM 48.2 °F - 48.2 °F 100% 30.25 in 3.0 mi NE 1.2 mph - N/A   Clear
12:58 AM 48.0 °F - 47.8 °F 99% 30.27 in 2.0 mi NNE 1.2 mph - N/A   Clear
12:59 AM 48.2 °F - 48.2 °F 100% 30.25 in 1.5 mi NNE 1.2 mph - N/A   Clear
1:00 AM 48.2 °F - 48.2 °F 100% 30.25 in 1.2 mi NNE 1.2 mph - N/A   Clear
1:01 AM 48.2 °F - 48.2 °F 100% 30.25 in 1.0 mi North 2.3 mph - N/A   Clear
1:02 AM 48.2 °F - 48.2 °F 100% 30.25 in 1.0 mi North 2.3 mph - N/A   Clear
1:03 AM 48.2 °F - 48.2 °F 100% 30.25 in 0.8 mi North 2.3 mph - N/A   Clear
1:07 AM 48.2 °F - 46.4 °F 93% 30.25 in 1.0 mi NNE 2.3 mph - N/A   Clear
1:08 AM 46.4 °F - 46.4 °F 100% 30.25 in 1.0 mi NNE 2.3 mph - N/A   Clear
1:09 AM 46.4 °F - 46.4 °F 100% 30.25 in 1.2 mi NNE 1.2 mph - N/A   Clear
1:13 AM 46.4 °F - 46.4 °F 100% 30.25 in 1.0 mi ENE 2.3 mph - N/A   Clear
1:14 AM 46.4 °F - 46.4 °F 100% 30.25 in 1.0 mi ENE 2.3 mph - N/A   Clear
1:15 AM 46.4 °F - 46.4 °F 100% 30.25 in 1.0 mi NE 2.3 mph - N/A   Clear
1:17 AM 48.2 °F - 48.2 °F 100% 30.25 in 1.0 mi NE 2.3 mph - N/A   Clear
1:18 AM 48.2 °F - 48.2 °F 100% 30.25 in 0.8 mi NE 2.3 mph - N/A   Clear
1:21 AM 48.2 °F - 48.2 °F 100% 30.25 in 1.0 mi NE 2.3 mph - N/A   Clear
1:26 AM 48.2 °F - 48.2 °F 100% 30.25 in 0.8 mi NNE 2.3 mph - N/A   Clear
1:31 AM 48.2 °F - 48.2 °F 100% 30.25 in 0.5 mi NNE 2.3 mph - N/A Fog Fog
1:44 AM 46.4 °F - 46.4 °F 100% 30.25 in 0.5 mi NNE 2.3 mph - N/A Fog Fog
1:50 AM 48.2 °F - 46.4 °F 93% 30.25 in 0.5 mi Calm Calm - N/A Fog Fog
1:57 AM 48.2 °F - 48.2 °F 100% 30.25 in 0.8 mi Calm Calm - N/A   Clear
1:58 AM 48.2 °F - 48.2 °F 100% 30.27 in 0.8 mi Calm Calm - N/A   Clear
2:02 AM 48.2 °F - 48.2 °F 100% 30.25 in 0.5 mi Calm Calm - N/A Fog Fog
2:06 AM 48.2 °F - 48.2 °F 100% 30.25 in 0.5 mi Calm Calm - N/A Fog Fog
2:07 AM 48.2 °F - 48.2 °F 100% 30.25 in 0.2 mi Calm Calm - N/A Fog Fog
2:08 AM 48.2 °F - 46.4 °F 93% 30.25 in 0.2 mi Calm Calm - N/A Fog Fog
2:09 AM 46.4 °F - 46.4 °F 100% 30.25 in 0.2 mi Calm Calm - N/A Fog Fog
2:11 AM 46.4 °F - 46.4 °F 100% 30.25 in 0.2 mi Calm Calm - N/A Fog Fog
2:12 AM 46.4 °F - 46.4 °F 100% 30.25 in 0.5 mi Calm Calm - N/A Fog Fog
2:15 AM 46.4 °F - 44.6 °F 93% 30.25 in 0.8 mi Calm Calm - N/A   Clear
2:16 AM 46.4 °F - 46.4 °F 100% 30.25 in 0.8 mi Calm Calm - N/A   Clear
2:17 AM 46.4 °F - 46.4 °F 100% 30.25 in 1.0 mi Calm Calm - N/A   Clear
2:18 AM 46.4 °F - 46.4 °F 100% 30.25 in 1.2 mi Calm Calm - N/A   Clear
2:20 AM 46.4 °F - 46.4 °F 100% 30.25 in 1.2 mi NE 1.2 mph - N/A   Clear
2:21 AM 46.4 °F - 46.4 °F 100% 30.24 in 1.2 mi ENE 2.3 mph - N/A   Clear
2:23 AM 46.4 °F - 46.4 °F 100% 30.24 in 1.2 mi East 2.3 mph - N/A   Clear
2:24 AM 46.4 °F - 46.4 °F 100% 30.24 in 1.5 mi East 2.3 mph - N/A   Clear
2:25 AM 48.2 °F - 46.4 °F 93% 30.24 in 1.5 mi ENE 1.2 mph - N/A   Clear
2:28 AM 48.2 °F - 48.2 °F 100% 30.24 in 1.8 mi NE 1.2 mph - N/A   Clear
2:29 AM 48.2 °F - 46.4 °F 93% 30.24 in 2.0 mi NNE 1.2 mph - N/A   Clear
2:32 AM 46.4 °F - 46.4 °F 100% 30.24 in 1.8 mi North 1.2 mph - N/A   Clear
2:33 AM 46.4 °F - 46.4 °F 100% 30.24 in 1.5 mi North 1.2 mph - N/A   Clear
2:42 AM 46.4 °F - 46.4 °F 100% 30.24 in 1.8 mi North 2.3 mph - N/A   Clear
2:45 AM 46.4 °F - 44.6 °F 93% 30.24 in 1.5 mi North 1.2 mph - N/A   Clear
2:46 AM 46.4 °F - 44.6 °F 93% 30.24 in 1.2 mi North 1.2 mph - N/A   Clear
2:47 AM 46.4 °F - 44.6 °F 93% 30.23 in 1.2 mi North 1.2 mph - N/A   Clear
2:48 AM 46.4 °F - 44.6 °F 93% 30.23 in 1.0 mi North 1.2 mph - N/A   Clear
2:50 AM 46.4 °F - 46.4 °F 100% 30.23 in 1.0 mi Calm Calm - N/A   Clear
2:57 AM 46.4 °F - 44.6 °F 93% 30.23 in 1.0 mi Calm Calm - N/A   Clear
2:58 AM 45.9 °F - 45.7 °F 99% 30.25 in 1.0 mi North 1.2 mph - N/A   Clear
2:59 AM 44.6 °F - 44.6 °F 100% 30.23 in 1.2 mi NNE 1.2 mph - N/A   Clear
3:00 AM 44.6 °F - 44.6 °F 100% 30.23 in 1.2 mi North 1.2 mph - N/A   Clear
3:02 AM 44.6 °F - 44.6 °F 100% 30.23 in 1.5 mi NNE 1.2 mph - N/A   Clear
3:03 AM 46.4 °F - 44.6 °F 93% 30.23 in 1.5 mi NNE 1.2 mph - N/A   Clear
3:04 AM 46.4 °F - 44.6 °F 93% 30.23 in 1.8 mi NNE 2.3 mph - N/A   Clear
3:05 AM 46.4 °F - 44.6 °F 93% 30.23 in 2.0 mi NE 2.3 mph - N/A   Clear
3:07 AM 46.4 °F - 46.4 °F 100% 30.23 in 1.8 mi NE 2.3 mph - N/A   Clear
3:08 AM 46.4 °F - 46.4 °F 100% 30.23 in 1.5 mi NE 2.3 mph - N/A   Clear
3:09 AM 46.4 °F - 46.4 °F 100% 30.23 in 1.2 mi NE 2.3 mph - N/A   Clear
3:10 AM 46.4 °F - 46.4 °F 100% 30.23 in 1.0 mi NNE 2.3 mph - N/A   Clear
3:11 AM 46.4 °F - 46.4 °F 100% 30.23 in 1.0 mi NNE 2.3 mph - N/A   Clear
3:12 AM 46.4 °F - 44.6 °F 93% 30.23 in 0.8 mi NNE 2.3 mph - N/A   Clear
3:15 AM 46.4 °F - 44.6 °F 93% 30.23 in 0.5 mi NNE 2.3 mph - N/A Fog Fog
3:31 AM 46.4 °F - 46.4 °F 100% 30.22 in 0.8 mi NE 2.3 mph - N/A   Clear
3:35 AM 46.4 °F - 46.4 °F 100% 30.22 in 1.0 mi ENE 2.3 mph - N/A   Clear
3:37 AM 46.4 °F - 46.4 °F 100% 30.22 in 1.0 mi ENE 2.3 mph - N/A   Clear
3:38 AM 46.4 °F - 46.4 °F 100% 30.22 in 1.2 mi ENE 2.3 mph - N/A   Clear
3:40 AM 46.4 °F - 46.4 °F 100% 30.22 in 1.5 mi ENE 2.3 mph - N/A   Clear
3:42 AM 46.4 °F - 46.4 °F 100% 30.22 in 1.5 mi ENE 2.3 mph - N/A   Clear
3:47 AM 46.4 °F - 44.6 °F 93% 30.22 in 1.2 mi Calm Calm - N/A   Clear
3:49 AM 44.6 °F - 44.6 °F 100% 30.22 in 1.0 mi Calm Calm - N/A   Clear
3:51 AM 44.6 °F - 44.6 °F 100% 30.22 in 0.8 mi Calm Calm - N/A   Clear
3:52 AM 44.6 °F - 44.6 °F 100% 30.22 in 0.8 mi Calm Calm - N/A   Clear
3:54 AM 44.6 °F - 44.6 °F 100% 30.22 in 0.5 mi Calm Calm - N/A Fog Fog
3:56 AM 44.6 °F - 42.8 °F 93% 30.22 in 0.5 mi Calm Calm - N/A Fog Fog
3:58 AM 43.9 °F - 43.7 °F 99% 30.24 in 0.5 mi Calm Calm - N/A Fog Fog
4:00 AM 42.8 °F - 42.8 °F 100% 30.22 in 0.5 mi Calm Calm - N/A Fog Fog
4:09 AM 42.8 °F - 42.8 °F 100% 30.22 in 0.5 mi Calm Calm - N/A Fog Fog
4:10 AM 42.8 °F - 42.8 °F 100% 30.22 in 0.2 mi Calm Calm - N/A Fog Fog
4:11 AM 42.8 °F - 42.8 °F 100% 30.22 in 0.2 mi Calm Calm - N/A Fog Fog
4:12 AM 42.8 °F - 42.8 °F 100% 30.22 in 0.2 mi Calm Calm - N/A Fog Fog
4:13 AM 42.8 °F - 42.8 °F 100% 30.22 in 0.2 mi Calm Calm - N/A Fog Fog
4:18 AM 42.8 °F - 42.8 °F 100% 30.22 in 0.2 mi North 2.3 mph - N/A Fog Fog
4:19 AM 42.8 °F - 42.8 °F 100% 30.21 in 0.5 mi North 2.3 mph - N/A Fog Fog
4:21 AM 42.8 °F - 42.8 °F 100% 30.21 in 0.5 mi North 2.3 mph - N/A Fog Fog
4:22 AM 42.8 °F - 42.8 °F 100% 30.21 in 0.8 mi North 2.3 mph - N/A   Clear
4:23 AM 42.8 °F - 42.8 °F 100% 30.21 in 0.8 mi North 2.3 mph - N/A   Clear
4:24 AM 42.8 °F - 42.8 °F 100% 30.21 in 1.0 mi North 2.3 mph - N/A   Clear
4:25 AM 42.8 °F - 42.8 °F 100% 30.22 in 1.5 mi North 2.3 mph - N/A   Clear
4:26 AM 42.8 °F - 42.8 °F 100% 30.22 in 2.5 mi North 2.3 mph - N/A   Clear
4:27 AM 42.8 °F - 42.8 °F 100% 30.22 in 3.0 mi North 2.3 mph - N/A   Clear
4:33 AM 42.8 °F - 42.8 °F 100% 30.21 in 3.0 mi Calm Calm - N/A   Partly Cloudy
4:34 AM 42.8 °F - 42.8 °F 100% 30.21 in 2.5 mi Calm Calm - N/A   Partly Cloudy
4:35 AM 42.8 °F - 42.8 °F 100% 30.21 in 1.5 mi NNE 1.2 mph - N/A   Partly Cloudy
4:36 AM 42.8 °F - 42.8 °F 100% 30.22 in 1.2 mi NE 1.2 mph - N/A   Partly Cloudy
4:37 AM 42.8 °F - 42.8 °F 100% 30.21 in 1.0 mi ENE 2.3 mph - N/A   Mist
4:38 AM 44.6 °F - 42.8 °F 93% 30.22 in 1.0 mi ENE 2.3 mph - N/A   Mist
4:39 AM 44.6 °F - 44.6 °F 100% 30.22 in 0.8 mi ENE 2.3 mph - N/A   Mist
4:40 AM 44.6 °F - 44.6 °F 100% 30.22 in 0.8 mi ENE 2.3 mph - N/A   Mist
4:48 AM 44.6 °F - 42.8 °F 93% 30.22 in 1.0 mi ENE 2.3 mph - N/A   Mist
4:49 AM 44.6 °F - 42.8 °F 93% 30.21 in 1.0 mi ENE 2.3 mph - N/A   Mist
4:50 AM 44.6 °F - 44.6 °F 100% 30.22 in 1.0 mi ENE 2.3 mph - N/A   Mist
4:51 AM 44.6 °F - 44.6 °F 100% 30.21 in 1.2 mi ENE 2.3 mph - N/A   Mostly Cloudy
4:52 AM 44.6 °F - 42.8 °F 93% 30.21 in 1.2 mi ENE 2.3 mph - N/A   Mostly Cloudy
4:53 AM 44.6 °F - 42.8 °F 93% 30.21 in 1.2 mi ENE 2.3 mph - N/A   Mostly Cloudy
4:56 AM 42.8 °F - 42.8 °F 100% 30.21 in 1.2 mi NE 2.3 mph - N/A   Mostly Cloudy
4:57 AM 42.8 °F 41.1 °F 42.8 °F 100% 30.21 in 1.0 mi NE 3.5 mph - N/A   Mist
4:58 AM 42.8 °F 41.1 °F 42.8 °F 100% 30.23 in 1.0 mi NE 3.5 mph - N/A   Mist
4:59 AM 42.8 °F 41.1 °F 42.8 °F 100% 30.21 in 0.8 mi NE 3.5 mph - N/A   Mist
5:00 AM 42.8 °F 41.1 °F 42.8 °F 100% 30.21 in 0.8 mi NE 3.5 mph - N/A   Mist
5:01 AM 42.8 °F 41.1 °F 42.8 °F 100% 30.21 in 0.5 mi NE 3.5 mph - N/A Fog Fog
5:02 AM 42.8 °F - 42.8 °F 100% 30.21 in 0.5 mi NNE 2.3 mph - N/A Fog Fog
5:04 AM 42.8 °F - 42.8 °F 100% 30.21 in 0.5 mi NNE 2.3 mph - N/A Fog Fog
5:05 AM 42.8 °F - 42.8 °F 100% 30.21 in 0.5 mi NNE 2.3 mph - N/A Fog Fog
5:12 AM 42.8 °F - 42.8 °F 100% 30.21 in 0.2 mi NE 2.3 mph - N/A Fog Fog
5:14 AM 42.8 °F - 42.8 °F 100% 30.21 in 0.2 mi NE 2.3 mph - N/A Fog Fog
5:15 AM 42.8 °F - 42.8 °F 100% 30.21 in 0.2 mi NE 2.3 mph - N/A Fog Fog
5:20 AM 42.8 °F - 42.8 °F 100% 30.21 in 0.5 mi ENE 2.3 mph - N/A Fog Fog
5:22 AM 42.8 °F - 42.8 °F 100% 30.21 in 0.5 mi NE 2.3 mph - N/A Fog Fog
5:24 AM 42.8 °F - 42.8 °F 100% 30.22 in 0.5 mi NE 2.3 mph - N/A Fog Fog
5:37 AM 42.8 °F - 42.8 °F 100% 30.22 in 0.8 mi Calm Calm - N/A   Mist
5:39 AM 42.8 °F - 42.8 °F 100% 30.22 in 0.8 mi Calm Calm - N/A   Mostly Cloudy
5:41 AM 42.8 °F - 42.8 °F 100% 30.21 in 0.8 mi NNE 1.2 mph - N/A   Mostly Cloudy
5:42 AM 42.8 °F - 42.8 °F 100% 30.21 in 1.0 mi NNE 2.3 mph - N/A   Mostly Cloudy
5:46 AM 42.8 °F - 42.8 °F 100% 30.21 in 0.8 mi NNE 2.3 mph - N/A   Overcast
5:49 AM 42.8 °F - 42.8 °F 100% 30.22 in 0.5 mi NNE 2.3 mph - N/A Fog Fog
5:53 AM 42.8 °F - 42.8 °F 100% 30.22 in 0.5 mi NNE 2.3 mph - N/A Fog Fog
5:55 AM 42.8 °F - 42.8 °F 100% 30.22 in 0.5 mi NE 2.3 mph - N/A Fog Fog
5:58 AM 42.8 °F - 42.4 °F 99% 30.24 in 0.5 mi NE 2.3 mph - N/A Fog Fog
6:07 AM 42.8 °F - 42.8 °F 100% 30.22 in 0.5 mi NE 2.3 mph - N/A Fog Fog
6:09 AM 42.8 °F - 42.8 °F 100% 30.22 in 0.5 mi NE 2.3 mph - N/A Fog Fog
6:10 AM 42.8 °F - 42.8 °F 100% 30.22 in 0.5 mi NE 2.3 mph - N/A Fog Fog
6:11 AM 42.8 °F - 42.8 °F 100% 30.22 in 0.2 mi NNE 2.3 mph - N/A Fog Fog
6:14 AM 42.8 °F - 42.8 °F 100% 30.22 in 0.2 mi NNE 2.3 mph - N/A Fog Fog
6:15 AM 42.8 °F - 42.8 °F 100% 30.22 in 0.2 mi NNE 2.3 mph - N/A Fog Fog
6:19 AM 42.8 °F - 41.0 °F 93% 30.22 in 0.2 mi North 2.3 mph - N/A Fog Fog
6:22 AM 42.8 °F - 41.0 °F 93% 30.22 in 0.5 mi NNE 2.3 mph - N/A Fog Fog
6:24 AM 42.8 °F - 42.8 °F 100% 30.22 in 0.5 mi NNE 2.3 mph - N/A Fog Fog
6:27 AM 42.8 °F - 41.0 °F 93% 30.22 in 0.5 mi NNE 2.3 mph - N/A Fog Fog
6:29 AM 41.0 °F - 41.0 °F 100% 30.22 in 0.5 mi NNE 2.3 mph - N/A Fog Fog
6:38 AM 41.0 °F - 41.0 °F 100% 30.22 in 0.2 mi NNE 2.3 mph - N/A Fog Fog
6:40 AM 41.0 °F - 41.0 °F 100% 30.22 in 0.2 mi North 2.3 mph - N/A Fog Fog
6:42 AM 41.0 °F - 41.0 °F 100% 30.22 in 0.2 mi North 2.3 mph - N/A Fog Fog
6:45 AM 41.0 °F - 41.0 °F 100% 30.22 in 0.5 mi North 2.3 mph - N/A Fog Fog
6:46 AM 41.0 °F - 41.0 °F 100% 30.22 in 0.5 mi North 2.3 mph - N/A Fog Fog
6:47 AM 41.0 °F - 41.0 °F 100% 30.22 in 0.5 mi North 2.3 mph - N/A Fog Fog
6:48 AM 41.0 °F - 41.0 °F 100% 30.22 in 0.5 mi North 2.3 mph - N/A Fog Fog
6:49 AM 41.0 °F - 41.0 °F 100% 30.22 in 0.8 mi North 1.2 mph - N/A   Mist
6:51 AM 41.0 °F - 41.0 °F 100% 30.22 in 0.5 mi North 1.2 mph - N/A Fog Fog
6:53 AM 41.0 °F - 41.0 °F 100% 30.22 in 0.5 mi North 1.2 mph - N/A Fog Fog
6:54 AM 41.0 °F - 41.0 °F 100% 30.22 in 0.5 mi North 1.2 mph - N/A Fog Fog
6:55 AM 42.8 °F - 41.0 °F 93% 30.22 in 0.5 mi North 1.2 mph - N/A Fog Fog
6:56 AM 42.8 °F - 41.0 °F 93% 30.22 in 0.2 mi North 1.2 mph - N/A Fog Fog
6:58 AM 42.8 °F - 42.8 °F 100% 30.24 in 0.2 mi North 1.2 mph - N/A Fog Fog
7:00 AM 42.8 °F - 42.8 °F 100% 30.22 in 0.5 mi North 1.2 mph - N/A Fog Fog
7:02 AM 42.8 °F - 42.8 °F 100% 30.22 in 0.5 mi North 1.2 mph - N/A Fog Fog
7:03 AM 42.8 °F - 42.8 °F 100% 30.22 in 1.0 mi North 1.2 mph - N/A   Mostly Cloudy
7:04 AM 42.8 °F - 42.8 °F 100% 30.22 in 1.2 mi North 1.2 mph - N/A   Mostly Cloudy
7:05 AM 42.8 °F - 42.8 °F 100% 30.22 in 1.5 mi North 2.3 mph - N/A   Mostly Cloudy
7:06 AM 42.8 °F - 42.8 °F 100% 30.22 in 2.0 mi North 2.3 mph - N/A   Overcast
7:07 AM 42.8 °F - 42.8 °F 100% 30.22 in 3.0 mi North 2.3 mph - N/A   Overcast
7:36 AM 46.4 °F - 44.6 °F 93% 30.22 in 2.5 mi NNW 2.3 mph - N/A   Overcast
7:37 AM 46.4 °F - 46.4 °F 100% 30.22 in 1.5 mi North 1.2 mph - N/A   Overcast
7:38 AM 46.4 °F - 46.4 °F 100% 30.22 in 1.0 mi North 1.2 mph - N/A   Overcast
7:39 AM 46.4 °F - 46.4 °F 100% 30.22 in 0.8 mi North 1.2 mph - N/A   Overcast
7:40 AM 46.4 °F - 46.4 °F 100% 30.22 in 0.5 mi North 1.2 mph - N/A Fog Fog
7:41 AM 46.4 °F - 46.4 °F 100% 30.22 in 0.2 mi North 1.2 mph - N/A Fog Fog
7:42 AM 46.4 °F - 46.4 °F 100% 30.22 in 0.2 mi North 1.2 mph - N/A Fog Fog
7:43 AM 46.4 °F - 46.4 °F 100% 30.22 in 0.2 mi NNW 2.3 mph - N/A Fog Fog
7:44 AM 46.4 °F - 46.4 °F 100% 30.22 in 0.2 mi North 2.3 mph - N/A Fog Fog
7:45 AM 46.4 °F - 46.4 °F 100% 30.22 in 0.2 mi North 2.3 mph - N/A Fog Fog
7:46 AM 46.4 °F - 46.4 °F 100% 30.22 in 0.2 mi North 2.3 mph - N/A Fog Fog
7:47 AM 46.4 °F - 46.4 °F 100% 30.22 in 0.2 mi North 2.3 mph - N/A Fog Fog
7:49 AM 46.4 °F - 46.4 °F 100% 30.22 in 0.2 mi North 1.2 mph - N/A Fog Fog
7:50 AM 46.4 °F - 46.4 °F 100% 30.22 in 0.2 mi North 2.3 mph - N/A Fog Fog
7:51 AM 46.4 °F - 46.4 °F 100% 30.22 in 0.2 mi North 2.3 mph - N/A Fog Fog
7:52 AM 46.4 °F - 46.4 °F 100% 30.22 in 0.2 mi North 2.3 mph - N/A Fog Fog
7:58 AM 46.6 °F - 46.4 °F 99% 30.24 in 0.2 mi NNE 1.2 mph - N/A Fog Fog
8:01 AM 46.4 °F - 46.4 °F 100% 30.22 in 0.2 mi NE 2.3 mph - N/A Fog Fog
8:03 AM 46.4 °F - 46.4 °F 100% 30.22 in 0.2 mi NNE 2.3 mph - N/A Fog Fog
8:05 AM 46.4 °F - 46.4 °F 100% 30.22 in 0.2 mi NNE 2.3 mph - N/A Fog Fog
8:09 AM 46.4 °F - 46.4 °F 100% 30.22 in 0.2 mi NNE 2.3 mph - N/A Fog Fog
8:11 AM 48.2 °F - 46.4 °F 93% 30.22 in 0.2 mi NNE 2.3 mph - N/A Fog Fog
8:14 AM 48.2 °F - 48.2 °F 100% 30.22 in 0.2 mi North 2.3 mph - N/A Fog Fog
8:17 AM 48.2 °F - 48.2 °F 100% 30.22 in 0.2 mi NNE 2.3 mph - N/A Fog Fog
8:18 AM 48.2 °F - 48.2 °F 100% 30.22 in 0.2 mi NNE 2.3 mph - N/A Fog Fog
8:19 AM 48.2 °F - 48.2 °F 100% 30.22 in 0.2 mi NNE 2.3 mph - N/A Fog Fog
8:20 AM 48.2 °F - 48.2 °F 100% 30.22 in 0.5 mi NNE 2.3 mph - N/A Fog Fog
8:24 AM 48.2 °F - 48.2 °F 100% 30.22 in 0.2 mi NE 2.3 mph - N/A Fog Fog
8:26 AM 48.2 °F - 48.2 °F 100% 30.22 in 0.2 mi Calm Calm - N/A Fog Fog
8:27 AM 48.2 °F - 48.2 °F 100% 30.22 in 0.2 mi Calm Calm - N/A Fog Fog
8:28 AM 48.2 °F - 48.2 °F 100% 30.22 in 0.2 mi Calm Calm - N/A Fog Fog
8:30 AM 48.2 °F - 48.2 °F 100% 30.22 in 0.2 mi Calm Calm - N/A Fog Fog
8:32 AM 48.2 °F - 48.2 °F 100% 30.22 in 0.2 mi Calm Calm - N/A Fog Fog
8:33 AM 48.2 °F - 48.2 °F 100% 30.22 in 0.2 mi Calm Calm - N/A Fog Fog
8:58 AM 49.6 °F - 49.5 °F 99% 30.25 in 0.2 mi Variable 1.2 mph - N/A Fog Fog
9:14 AM 50.0 °F - 50.0 °F 100% 30.23 in 0.2 mi North 2.3 mph - N/A Fog Fog
9:15 AM 50.0 °F - 50.0 °F 100% 30.23 in 0.2 mi NNW 1.2 mph - N/A Fog Fog
9:18 AM 50.0 °F - 50.0 °F 100% 30.23 in 0.2 mi NNW 1.2 mph - N/A Fog Fog
9:30 AM 51.8 °F - 51.8 °F 100% 30.23 in 0.2 mi NNW 2.3 mph - N/A Fog Fog
9:33 AM 51.8 °F - 51.8 °F 100% 30.23 in 0.2 mi NNW 2.3 mph - N/A Fog Fog
9:36 AM 51.8 °F - 51.8 °F 100% 30.23 in 0.5 mi NNW 2.3 mph - N/A Fog Fog
9:40 AM 51.8 °F - 51.8 °F 100% 30.23 in 0.5 mi NNW 2.3 mph - N/A Fog Fog
9:48 AM 51.8 °F - 51.8 °F 100% 30.23 in 0.5 mi North 2.3 mph - N/A Fog Fog
9:52 AM 51.8 °F - 51.8 °F 100% 30.22 in 0.8 mi Variable 1.2 mph - N/A   Mist
9:53 AM 51.8 °F - 51.8 °F 100% 30.22 in 0.8 mi Variable 1.2 mph - N/A   Mist
9:54 AM 51.8 °F - 51.8 °F 100% 30.22 in 0.8 mi Variable 2.3 mph - N/A   Mist
9:55 AM 51.8 °F - 51.8 °F 100% 30.22 in 1.0 mi Variable 2.3 mph - N/A   Mist
9:56 AM 53.6 °F - 51.8 °F 94% 30.22 in 1.0 mi North 2.3 mph - N/A   Mist
9:57 AM 53.6 °F - 51.8 °F 94% 30.22 in 1.2 mi Variable 2.3 mph - N/A   Overcast
9:58 AM 53.6 °F - 51.8 °F 94% 30.24 in 1.2 mi Variable 2.3 mph - N/A   Overcast
9:59 AM 53.6 °F - 51.8 °F 94% 30.22 in 1.5 mi Variable 2.3 mph - N/A   Overcast
10:00 AM 53.6 °F - 51.8 °F 94% 30.22 in 1.8 mi Variable 3.5 mph - N/A   Overcast
10:01 AM 53.6 °F - 53.6 °F 100% 30.22 in 2.0 mi NE 3.5 mph - N/A   Overcast
10:02 AM 53.6 °F - 53.6 °F 100% 30.22 in 2.5 mi NE 2.3 mph - N/A   Overcast
10:03 AM 53.6 °F - 53.6 °F 100% 30.22 in 3.0 mi Variable 2.3 mph - N/A   Overcast
10:27 AM 53.6 °F - 53.6 °F 100% 30.22 in 10.0 mi NW 4.6 mph - N/A   Overcast
10:47 AM 55.4 °F - 55.4 °F 100% 30.22 in 10.0 mi Variable 3.5 mph - N/A   Overcast
10:54 AM 55.4 °F - 55.4 °F 100% 30.22 in 10.0 mi NNW 2.3 mph - N/A   Mostly Cloudy
10:56 AM 55.4 °F - 55.4 °F 100% 30.22 in 10.0 mi NNW 2.3 mph - N/A   Scattered Clouds
10:58 AM 57.2 °F - 55.4 °F 94% 30.24 in 10.0 mi NNW 2.3 mph - N/A   Scattered Clouds
11:30 AM 59.0 °F - 59.0 °F 100% 30.21 in 10.0 mi North 3.5 mph - N/A   Light Drizzle
11:42 AM 60.8 °F - 60.8 °F 100% 30.20 in 10.0 mi Calm Calm - N/A   Clear
11:45 AM 60.8 °F - 60.8 °F 100% 30.20 in 10.0 mi Calm Calm - N/A   Light Drizzle
11:58 AM 61.5 °F - 61.3 °F 99% 30.21 in 10.0 mi Variable 3.5 mph - N/A   Clear
12:58 PM 66.2 °F - 52.2 °F 61% 30.19 in 10.0 mi ENE 6.9 mph - N/A   Scattered Clouds
1:58 PM 68.9 °F - 51.1 °F 53% 30.17 in 10.0 mi NE 4.6 mph - N/A   Scattered Clouds
2:58 PM 70.3 °F - 50.5 °F 49% 30.14 in 10.0 mi Variable 5.8 mph - N/A   Partly Cloudy
3:58 PM 71.2 °F - 49.5 °F 46% 30.14 in 10.0 mi North 2.3 mph - N/A   Partly Cloudy
4:58 PM 70.2 °F - 46.9 °F 43% 30.12 in 10.0 mi East 3.5 mph - N/A   Partly Cloudy
5:58 PM 67.3 °F - 49.3 °F 52% 30.12 in 10.0 mi ESE 4.6 mph - N/A   Clear
6:58 PM 62.1 °F - 47.7 °F 59% 30.11 in 10.0 mi SE 4.6 mph - N/A   Clear
7:58 PM 52.2 °F - 47.5 °F 84% 30.13 in 10.0 mi East 2.3 mph - N/A   Clear
8:58 PM 50.9 °F - 48.7 °F 92% 30.14 in 10.0 mi ENE 3.5 mph - N/A   Clear
9:58 PM 48.2 °F - 47.7 °F 98% 30.14 in 10.0 mi Calm Calm - N/A   Clear
10:58 PM 44.8 °F - 44.2 °F 98% 30.14 in 10.0 mi ENE 2.3 mph - N/A   Clear
11:37 PM 46.4 °F - 44.6 °F 93% 30.12 in 2.5 mi NE 2.3 mph - N/A   Clear
11:43 PM 46.4 °F 45.2 °F 44.6 °F 93% 30.12 in 3.0 mi ENE 3.5 mph - N/A   Clear
11:58 PM 46.0 °F - 45.9 °F 99% 30.13 in 10.0 mi Calm Calm - N/A   Clear